Location: Kernascl�den
(48.0062°N, 3.3198°W)
Time: 22:06:58
(UTC+00:00)

Cosmos 773 Rocket - Pass Details

Date: 21 January 2021
Orbit: 746 x 776 km, 74.1° (Epoch: 04 March)

Event Time Altitude Azimuth Distance (km) Brightness Sun altitude
Rises 17:35:40 0° 337° (NNW) 3,214 7.2 -6.7°
Reaches altitude 10° 17:38:02 10° 338° (NNW) 2,282 6.5 -7.1°
Maximum altitude 17:43:13 85° 67° (ENE) 758 3.9 -7.9°
Drops below altitude 10° 17:48:21 10° 157° (SSE) 2,258 6.4 -8.7°
Sets 17:50:41 0° 158° (SSE) 3,177 7.2 -9.1°
